Weather History for KCIR - May, 2012

Change the Weather History Date:

Monday, May 28, 2012

  Actual Average (KPAH) Record (KPAH)
Temperature  
Mean Temperature 84 °F 70 °F  
Max Temperature 98 °F 81 °F 95 °F (2012)
Min Temperature 71 °F 60 °F 44 °F (1994)
Degree Days  
Heating Degree Days 0 1  
Month to date heating degree days 62  
Since 1 July heating degree days 4126  
Cooling Degree Days 20 6  
Month to date cooling degree days 109  
Year to date cooling degree days 151  
Growing Degree Days 34 (Base 50)    
Moisture  
Dew Point 64 °F    
Average Humidity 49    
Maximum Humidity 78    
Minimum Humidity 29    
Precipitation  
Precipitation 0.00 in 0.15 in 2.08 in (1997)
Month to date precipitation 4.50  
Year to date precipitation 20.78  
Snow  
Snow 0.00 in 0.00 in 0.00 in (2002)
Month to date snowfall 0.0  
Since 1 July snowfall 9.1  
Snow Depth -    
Sea Level Pressure  
Sea Level Pressure 29.88 in    
Wind  
Wind Speed 6 mph (South)    
Max Wind Speed 13 mph    
Max Gust Speed 17 mph    
Visibility 10 miles    
Events      
T = Trace of Precipitation, MM = Missing Value Source: NWS Daily Summary

Daily Weather History Graph

Daily Weather History Graph

Search for Another Location

Airport or City:

Trip Planner

Search our weather history database for the weather conditions in past years. The results will help you decide how hot, cold, wet, or windy it might be!

Date:

Astronomy

May. 28, 2012 Rise Set
Actual Time 5:40 AM CDT 8:08 PM CDT
Civil Twilight 5:09 AM CDT 8:38 PM CDT
Nautical Twilight 4:32 AM CDT 9:16 PM CDT
Astronomical Twilight 3:51 AM CDT 9:57 PM CDT
Moon 12:43 PM CDT (5/28) 12:51 AM CDT (5/28)
Length of Visible Light 15h 28m
Length of Day
14h 28m
Waxing Crescent, 49% of the Moon is Illuminated
May 28
Waxing Crescent
May 28
First Quarter
Jun 4
Full
Jun 11
Last Quarter
Jun 19
New

Hourly Weather History & Observations

Time (CDT) Temp. Heat Index Dew Point Humidity Pressure Visibility Wind Dir Wind Speed Gust Speed Precip Events Conditions
12:15 AM 80.6 °F 82.3 °F 64.4 °F 58% 29.92 in 10.0 mi SSE 5.8 mph - N/A   Clear
12:35 AM 78.8 °F - 64.4 °F 61% 29.92 in 10.0 mi SSE 5.8 mph - N/A   Clear
12:55 AM 78.8 °F - 64.4 °F 61% 29.91 in 10.0 mi SSE 4.6 mph - N/A   Clear
1:15 AM 80.6 °F 82.3 °F 64.4 °F 58% 29.91 in 10.0 mi SSE 5.8 mph - N/A   Clear
1:35 AM 78.8 °F - 64.4 °F 61% 29.91 in 10.0 mi SSE 5.8 mph - N/A   Clear
1:55 AM 78.8 °F - 64.4 °F 61% 29.90 in 10.0 mi South 5.8 mph - N/A   Clear
2:15 AM 78.8 °F - 64.4 °F 61% 29.90 in 10.0 mi SSE 6.9 mph - N/A   Clear
2:35 AM 78.8 °F - 64.4 °F 61% 29.90 in 10.0 mi South 5.8 mph - N/A   Clear
2:55 AM 78.8 °F - 64.4 °F 61% 29.90 in 10.0 mi South 5.8 mph - N/A   Clear
3:15 AM 77.0 °F - 64.4 °F 65% 29.89 in 10.0 mi South 4.6 mph - N/A   Clear
3:35 AM 77.0 °F - 64.4 °F 65% 29.90 in 10.0 mi South 5.8 mph - N/A   Clear
3:55 AM 77.0 °F - 64.4 °F 65% 29.90 in 10.0 mi South 4.6 mph - N/A   Clear
4:15 AM 77.0 °F - 64.4 °F 65% 29.90 in 10.0 mi SSE 4.6 mph - N/A   Clear
4:35 AM 77.0 °F - 64.4 °F 65% 29.90 in 10.0 mi SSE 4.6 mph - N/A   Clear
4:55 AM 77.0 °F - 64.4 °F 65% 29.91 in 10.0 mi South 4.6 mph - N/A   Clear
5:15 AM 77.0 °F - 64.4 °F 65% 29.91 in 10.0 mi South 3.5 mph - N/A   Clear
5:35 AM 77.0 °F - 64.4 °F 65% 29.92 in 10.0 mi Calm Calm - N/A   Clear
5:55 AM 71.6 °F - 62.6 °F 73% 29.93 in 10.0 mi Calm Calm - N/A   Clear
6:15 AM 71.6 °F - 64.4 °F 78% 29.94 in 10.0 mi Calm Calm - N/A   Clear
6:35 AM 73.4 °F - 64.4 °F 73% 29.95 in 10.0 mi Calm Calm - N/A   Clear
6:55 AM 75.2 °F - 64.4 °F 69% 29.95 in 10.0 mi Calm Calm - N/A   Clear
7:15 AM 77.0 °F - 66.2 °F 69% 29.95 in 10.0 mi South 3.5 mph - N/A   Clear
7:35 AM 78.8 °F - 66.2 °F 65% 29.96 in 10.0 mi Calm Calm - N/A   Clear
7:55 AM 80.6 °F 82.7 °F 66.2 °F 61% 29.96 in 10.0 mi South 4.6 mph - N/A   Clear
8:15 AM 82.4 °F 84.6 °F 66.2 °F 58% 29.97 in 10.0 mi SSW 3.5 mph - N/A   Scattered Clouds
8:35 AM 82.4 °F 84.6 °F 66.2 °F 58% 29.97 in 10.0 mi Calm Calm - N/A   Mostly Cloudy
8:55 AM 84.2 °F 86.6 °F 66.2 °F 55% 29.97 in 10.0 mi SSW 5.8 mph - N/A   Mostly Cloudy
9:15 AM 86.0 °F 88.2 °F 66.2 °F 51% 29.96 in 10.0 mi South 5.8 mph - N/A   Scattered Clouds
9:35 AM 87.8 °F 90.4 °F 66.2 °F 49% 29.96 in 10.0 mi SSW 5.8 mph - N/A   Clear
9:55 AM 87.8 °F 90.4 °F 66.2 °F 49% 29.95 in 10.0 mi South 6.9 mph - N/A   Clear
10:15 AM 89.6 °F 92.2 °F 66.2 °F 46% 29.95 in 10.0 mi South 4.6 mph - N/A   Clear
10:35 AM 91.4 °F 93.2 °F 64.4 °F 41% 29.94 in 10.0 mi SSW 8.1 mph - N/A   Clear
10:55 AM 91.4 °F 93.2 °F 64.4 °F 41% 29.94 in 10.0 mi SSW 10.4 mph - N/A   Clear
11:15 AM 93.2 °F 94.9 °F 64.4 °F 38% 29.93 in 10.0 mi South 9.2 mph - N/A   Clear
11:35 AM 93.2 °F 94.1 °F 62.6 °F 36% 29.93 in 10.0 mi SSW 10.4 mph - N/A   Clear
11:55 AM 95.0 °F 96.0 °F 62.6 °F 34% 29.92 in 10.0 mi SSW 10.4 mph - N/A   Clear
12:15 PM 95.0 °F 96.0 °F 62.6 °F 34% 29.92 in 10.0 mi South 12.7 mph 17.3 mph N/A   Clear
12:35 PM 95.0 °F 96.0 °F 62.6 °F 34% 29.91 in 10.0 mi South 6.9 mph - N/A   Clear
12:55 PM 95.0 °F 96.0 °F 62.6 °F 34% 29.90 in 10.0 mi SSW 10.4 mph 17.3 mph N/A   Clear
1:15 PM 96.8 °F 98.0 °F 62.6 °F 32% 29.89 in 10.0 mi SSW 9.2 mph - N/A   Clear
1:35 PM 96.8 °F 98.0 °F 62.6 °F 32% 29.88 in 10.0 mi SSW 11.5 mph - N/A   Scattered Clouds
1:55 PM 96.8 °F 98.0 °F 62.6 °F 32% 29.87 in 10.0 mi SSW 8.1 mph - N/A   Scattered Clouds
2:15 PM 96.8 °F 98.0 °F 62.6 °F 32% 29.87 in 10.0 mi South 9.2 mph - N/A   Scattered Clouds
2:35 PM 96.8 °F 97.1 °F 60.8 °F 30% 29.86 in 10.0 mi SSW 8.1 mph - N/A   Scattered Clouds
2:55 PM 98.6 °F 100.0 °F 62.6 °F 30% 29.85 in 10.0 mi SSW 8.1 mph 16.1 mph N/A   Clear
3:15 PM 98.6 °F 99.4 °F 60.8 °F 29% 29.85 in 10.0 mi SW 10.4 mph - N/A   Clear
3:35 PM 98.6 °F 100.0 °F 62.6 °F 30% 29.84 in 10.0 mi South 9.2 mph 16.1 mph N/A   Scattered Clouds
3:55 PM 98.6 °F 99.4 °F 60.8 °F 29% 29.84 in 10.0 mi South 8.1 mph - N/A   Clear
4:15 PM 96.8 °F 97.1 °F 60.8 °F 30% 29.83 in 10.0 mi SSW 8.1 mph - N/A   Clear
4:35 PM 95.0 °F 95.2 °F 60.8 °F 32% 29.83 in 10.0 mi SSW 6.9 mph - N/A   Clear
4:55 PM 95.0 °F 95.2 °F 60.8 °F 32% 29.82 in 10.0 mi SSW 8.1 mph - N/A   Mostly Cloudy
5:15 PM 96.8 °F 97.1 °F 60.8 °F 30% 29.82 in 10.0 mi SSW 5.8 mph - N/A   Scattered Clouds
5:35 PM 95.0 °F 96.0 °F 62.6 °F 34% 29.82 in 10.0 mi SSW 5.8 mph - N/A   Clear
5:55 PM 93.2 °F 94.1 °F 62.6 °F 36% 29.82 in 10.0 mi South 11.5 mph - N/A   Clear
6:15 PM 91.4 °F 92.1 °F 62.6 °F 38% 29.82 in 10.0 mi South 9.2 mph - N/A   Clear
6:35 PM 93.2 °F 94.1 °F 62.6 °F 36% 29.82 in 10.0 mi South 5.8 mph - N/A   Scattered Clouds
6:55 PM 93.2 °F 94.1 °F 62.6 °F 36% 29.82 in 10.0 mi South 8.1 mph - N/A   Mostly Cloudy
7:15 PM 91.4 °F 92.1 °F 62.6 °F 38% 29.82 in 10.0 mi South 8.1 mph - N/A   Scattered Clouds
7:35 PM 91.4 °F 93.2 °F 64.4 °F 41% 29.81 in 10.0 mi South 5.8 mph - N/A   Clear
7:55 PM 89.6 °F 91.1 °F 64.4 °F 43% 29.82 in 10.0 mi SSW 8.1 mph - N/A   Clear
8:15 PM 89.6 °F 91.1 °F 64.4 °F 43% 29.82 in 10.0 mi SSW 5.8 mph - N/A   Clear
8:35 PM 87.8 °F 89.4 °F 64.4 °F 46% 29.82 in 10.0 mi SSW 5.8 mph - N/A   Clear
8:55 PM 87.8 °F 89.4 °F 64.4 °F 46% 29.82 in 10.0 mi SSW 4.6 mph - N/A   Clear
9:15 PM 86.0 °F 87.3 °F 64.4 °F 48% 29.83 in 10.0 mi South 3.5 mph - N/A   Clear
9:35 PM 86.0 °F 87.3 °F 64.4 °F 48% 29.83 in 10.0 mi South 5.8 mph - N/A   Clear
9:55 PM 84.2 °F 85.6 °F 64.4 °F 51% 29.84 in 10.0 mi South 5.8 mph - N/A   Clear
10:15 PM 86.0 °F 87.3 °F 64.4 °F 48% 29.84 in 10.0 mi South 4.6 mph - N/A   Clear
10:35 PM 84.2 °F 85.6 °F 64.4 °F 51% 29.84 in 10.0 mi South 4.6 mph - N/A   Clear
10:55 PM 84.2 °F 85.6 °F 64.4 °F 51% 29.83 in 10.0 mi South 4.6 mph - N/A   Scattered Clouds
11:15 PM 82.4 °F 83.9 °F 64.4 °F 54% 29.82 in 10.0 mi SSE 4.6 mph - N/A   Scattered Clouds
11:35 PM 82.4 °F 84.6 °F 66.2 °F 58% 29.82 in 10.0 mi SSE 5.8 mph - N/A   Scattered Clouds
11:55 PM 82.4 °F 84.6 °F 66.2 °F 58% 29.82 in 10.0 mi South 5.8 mph - N/A   Mostly Cloudy